Date String (YYYY-MM-DD hh:mm:ss) UTC,Instrument flags,Ambient pressure (hPa),Sample flow (lpm),Bypass flow (lpm),Sample temperature (°C),Ambient temperature (°C),ASC tube jacket temperature (°C),LED temperature (°C),Box temperature (°C),Sample RH (%),Span deviation,Mass concentration (μg/m³),Mass concentration (μg/m³),Mass concentration (μg/m³)
DateTimeUTC,F1_M11,P_M11,Q1_M11,Q2_M11,T1_M11,T2_M11,T3_M11,T4_M11,T5_M11,U1_M11,ZSPAN_M11,X0_M11,X2_M11,X1_M11
2022-05-28 02:00:00,,0821.3,4.99,0.00,29.4,28.7,00.0,38.1,31.4,10.1,0000.0,0007.48,0003.01,0001.77
2022-05-28 02:01:00,,0821.3,5.01,0.00,29.4,27.9,00.0,38.1,31.2,10.1,0000.0,0007.68,0002.97,0001.74
2022-05-28 02:02:00,,0821.3,5.01,0.00,29.3,27.0,00.0,38.0,31.0,10.2,0000.0,0007.84,0002.89,0001.73
2022-05-28 02:03:00,,0821.3,4.99,0.00,29.2,26.8,00.0,38.0,30.9,10.2,0000.0,0008.27,0002.92,0001.73
2022-05-28 02:04:00,,0821.3,5.02,0.00,29.2,26.9,00.0,38.0,30.8,10.3,0000.0,0008.29,0002.92,0001.73
2022-05-28 02:05:00,,0821.3,5.00,0.00,29.1,27.0,00.0,38.0,30.8,10.5,0000.0,0008.33,0002.85,0001.72
2022-05-28 02:06:00,,0821.3,4.99,0.00,29.1,27.2,00.0,38.0,30.9,10.6,0000.0,0008.32,0002.76,0001.71
2022-05-28 02:07:00,,0821.3,4.99,0.00,29.1,27.4,00.0,38.0,30.9,10.6,0000.0,0007.66,0002.77,0001.71
2022-05-28 02:08:00,,0821.3,5.00,0.00,29.1,27.6,00.0,38.0,31.0,10.6,0000.0,0007.67,0002.75,0001.71
2022-05-28 02:09:00,,0821.3,5.00,0.00,29.1,27.8,00.0,38.0,31.0,10.6,0000.0,0007.77,0002.79,0001.70
2022-05-28 02:10:00,,0821.3,5.01,0.00,29.2,27.9,00.0,38.0,31.1,10.7,0000.0,0008.15,0002.86,0001.71
2022-05-28 02:11:00,,0821.3,5.00,0.00,29.2,28.1,00.0,38.0,31.1,10.9,0000.0,0008.57,0002.86,0001.71
2022-05-28 02:12:00,,0821.3,5.00,0.00,29.2,28.2,00.0,38.0,31.2,10.8,0000.0,0008.88,0002.87,0001.71
2022-05-28 02:13:00,,0821.3,5.00,0.00,29.3,28.3,00.0,38.0,31.2,10.7,0000.0,0008.88,0002.94,0001.73
2022-05-28 02:14:00,,0821.4,4.99,0.00,29.3,28.4,00.0,38.1,31.3,11.0,0000.0,0008.69,0002.94,0001.73
2022-05-28 02:15:00,,0821.4,5.00,0.00,29.3,28.5,00.0,38.1,31.3,12.7,0000.0,0008.65,0002.95,0001.73
2022-05-28 02:16:00,,0821.4,5.01,0.00,29.4,28.6,00.0,38.1,31.4,14.6,0000.0,0008.65,0003.03,0001.76
2022-05-28 02:17:00,,0821.4,5.00,0.00,29.4,28.6,00.0,38.1,31.4,14.9,0000.0,0009.02,0003.12,0001.78
2022-05-28 02:18:00,,0821.4,5.00,0.00,29.4,28.0,00.0,38.1,31.2,15.1,0000.0,0009.53,0003.12,0001.79
2022-05-28 02:19:00,,0821.4,4.99,0.00,29.3,27.5,00.0,38.1,31.1,15.0,0000.0,0009.85,0003.10,0001.83
2022-05-28 02:20:00,,0821.4,5.00,0.00,29.3,27.4,00.0,38.1,31.0,15.1,0000.0,0010.46,0003.09,0001.85
2022-05-28 02:21:00,,0821.4,5.01,0.00,29.2,27.4,00.0,38.1,31.0,15.2,0000.0,0010.32,0003.10,0001.87
2022-05-28 02:22:00,,0821.5,4.99,0.00,29.2,27.6,00.0,38.1,31.0,15.2,0000.0,0009.70,0003.13,0001.90
2022-05-28 02:23:00,,0821.4,5.00,0.00,29.2,27.7,00.0,38.1,31.1,15.0,0000.0,0009.21,0003.19,0001.95
2022-05-28 02:24:00,,0821.5,5.00,0.00,29.3,27.9,00.0,38.1,31.1,15.0,0000.0,0009.19,0003.19,0001.97
2022-05-28 02:25:00,,0821.5,5.00,0.00,29.3,28.0,00.0,38.1,31.2,14.4,0000.0,0009.19,0003.24,0002.00
2022-05-28 02:26:00,,0821.5,5.01,0.00,29.3,28.1,00.0,38.1,31.2,13.7,0000.0,0009.46,0003.27,0002.03
2022-05-28 02:27:00,,0821.5,5.00,0.00,29.3,28.2,00.0,38.1,31.3,13.4,0000.0,0009.50,0003.28,0002.03
2022-05-28 02:28:00,,0821.6,4.99,0.00,29.4,28.3,00.0,38.1,31.3,13.6,0000.0,0009.00,0003.27,0002.05
2022-05-28 02:29:00,,0821.6,5.00,0.00,29.4,28.4,00.0,38.2,31.3,13.5,0000.0,0008.57,0003.25,0002.05
2022-05-28 02:30:00,,0821.7,4.99,0.00,29.4,28.5,00.0,38.2,31.4,13.5,0000.0,0009.15,0003.29,0002.05
2022-05-28 02:31:00,,0821.7,5.01,0.00,29.4,28.6,00.0,38.2,31.4,13.7,0000.0,0008.86,0003.35,0002.07
2022-05-28 02:32:00,,0821.7,5.00,0.00,29.5,28.2,00.0,38.2,31.3,13.7,0000.0,0008.81,0003.35,0002.09
2022-05-28 02:33:00,,0821.7,5.01,0.00,29.4,27.2,00.0,38.1,31.0,13.7,0000.0,0008.80,0003.35,0002.09
2022-05-28 02:34:00,,0821.7,4.99,0.00,29.3,26.7,00.0,38.1,30.9,13.8,0000.0,0008.85,0003.37,0002.08
2022-05-28 02:35:00,,0821.7,5.01,0.00,29.2,26.7,00.0,38.0,30.8,13.8,0000.0,0008.84,0003.36,0002.08
2022-05-28 02:36:00,,0821.7,5.00,0.00,29.1,26.8,00.0,38.0,30.8,13.7,0000.0,0008.59,0003.35,0002.09
2022-05-28 02:37:00,,0821.7,5.00,0.00,29.1,27.0,00.0,38.0,30.8,13.6,0000.0,0008.41,0003.32,0002.08
2022-05-28 02:38:00,,0821.7,5.00,0.00,29.1,27.2,00.0,38.0,30.9,13.4,0000.0,0008.23,0003.30,0002.09
2022-05-28 02:39:00,,0821.7,5.00,0.00,29.1,27.4,00.0,38.0,30.9,13.1,0000.0,0008.33,0003.27,0002.06
2022-05-28 02:40:00,,0821.7,5.01,0.00,29.1,27.5,00.0,38.0,31.0,13.1,0000.0,0008.46,0003.28,0002.06
2022-05-28 02:41:00,,0821.7,5.01,0.00,29.1,27.7,00.0,38.0,31.0,13.2,0000.0,0008.01,0003.29,0002.06
2022-05-28 02:42:00,,0821.7,4.98,0.00,29.1,27.9,00.0,38.0,31.0,13.2,0000.0,0007.98,0003.26,0002.04
2022-05-28 02:43:00,,0821.8,5.00,0.00,29.2,28.0,00.0,38.0,31.1,13.5,0000.0,0008.02,0003.24,0002.03
2022-05-28 02:44:00,,0821.8,5.00,0.00,29.2,28.1,00.0,38.0,31.1,15.5,0000.0,0008.64,0003.24,0002.01
2022-05-28 02:45:00,,0821.8,5.00,0.00,29.2,28.2,00.0,38.0,31.2,14.5,0000.0,0009.33,0003.23,0002.02
2022-05-28 02:46:00,,0821.8,5.00,0.00,29.2,28.3,00.0,38.1,31.2,13.3,0000.0,0009.27,0003.21,0002.02
2022-05-28 02:47:00,,0821.8,5.00,0.00,29.3,28.4,00.0,38.1,31.2,13.0,0000.0,0009.69,0003.25,0002.01
2022-05-28 02:48:00,,0821.8,4.99,0.00,29.3,28.4,00.0,38.1,31.3,13.0,0000.0,0010.29,0003.26,0002.02
2022-05-28 02:49:00,,0821.7,5.00,0.00,29.3,28.5,00.0,38.1,31.3,12.5,0000.0,0010.41,0003.26,0002.03
2022-05-28 02:50:00,,0821.7,5.00,0.00,29.4,28.6,00.0,38.1,31.4,12.5,0000.0,0010.40,0003.29,0002.04
2022-05-28 02:51:00,,0821.6,5.01,0.00,29.4,28.3,00.0,38.1,31.3,12.3,0000.0,0010.69,0003.30,0002.03
2022-05-28 02:52:00,,0821.6,4.98,0.00,29.3,27.5,00.0,38.1,31.1,12.2,0000.0,0010.77,0003.29,0002.02
2022-05-28 02:53:00,,0821.7,5.01,0.00,29.3,27.2,00.0,38.0,31.0,12.2,0000.0,0010.50,0003.33,0002.04
2022-05-28 02:54:00,,0821.7,5.01,0.00,29.2,27.2,00.0,38.0,30.9,12.2,0000.0,0010.34,0003.36,0002.05
2022-05-28 02:55:00,,0821.7,4.99,0.00,29.2,27.3,00.0,38.0,30.9,11.8,0000.0,0009.67,0003.37,0002.06
2022-05-28 02:56:00,,0821.7,5.01,0.00,29.2,27.4,00.0,38.0,31.0,11.9,0000.0,0008.71,0003.32,0002.06
2022-05-28 02:57:00,,0821.7,5.00,0.00,29.2,27.6,00.0,38.0,31.0,12.0,0000.0,0009.22,0003.32,0002.07
2022-05-28 02:58:00,,0821.7,5.02,0.00,29.2,27.7,00.0,38.0,31.0,12.4,0000.0,0009.44,0003.32,0002.09
2022-05-28 02:59:00,,0821.7,5.01,0.00,29.2,27.9,00.0,38.1,31.1,11.5,0000.0,0009.19,0003.34,0002.07
